GSAT0223 (GALILEO 27)

Last updated on Thu Nov 21 2024 00:02:31 GMT+0000 (Coordinated Universal Time)

1 49809U 21116A 24325.24768271 -.00000095 00000+0 00000+0 0 9997 2 49809 57.2884 357.1626 0004373 236.5383 84.1354 1.70476055 18394
UTC large
Height (km)
Speed (km/s)
/
Latitude / Longitude
Inclination (degrees)
Orbital Period (minutes)
Azimuth
Elevation
Range (km)
Doppler Factor

Next 0 passes for location: London (51.5072 / 0.1276)

Sorry there are no passes over London.